Frederick, MD

3:32 PM EDT on April 29, 2017 (GMT -0400)
Frederick Municipal

Weather History for KFDK - March, 2014

Change the Weather History Date:

Monday, March 17, 2014

  Actual Average (KHGR) Record (KHGR)
Temperature  
Mean Temperature 28 °F -  
Max Temperature 32 °F 47 °F 75 °F (2012)
Min Temperature 24 °F 30 °F 21 °F (2014)
Degree Days  
Heating Degree Days 37    
Moisture  
Dew Point 25 °F    
Average Humidity 90    
Maximum Humidity 100    
Minimum Humidity 75    
Precipitation  
Precipitation 0.08 in - - ()
Sea Level Pressure  
Sea Level Pressure 30.09 in    
Wind  
Wind Speed 8 mph (NNE)    
Max Wind Speed 13 mph    
Max Gust Speed 16 mph    
Visibility 5 miles    
Events Snow    
Averages and records for this station are not official NWS values.
T = Trace of Precipitation, MM = Missing Value Source: NWS Daily Summary

Daily Weather History Graph

Daily Weather History Graph

Search for Another Location

Airport or City:

Trip Planner

Search our weather history database for the weather conditions in past years. The results will help you decide how hot, cold, wet, or windy it might be!

Date:

Astronomy

Mar. 17, 2014 Rise Set
Actual Time 7:17 AM EDT 7:18 PM EDT
Civil Twilight 6:50 AM EDT 7:45 PM EDT
Nautical Twilight 6:19 AM EDT 8:16 PM EDT
Astronomical Twilight 5:48 AM EDT 8:48 PM EDT
Moon 8:32 PM EDT (3/17) 7:32 AM EDT (3/17)
Length of Visible Light 12h 54m
Length of Day
12h 00m
Full, 99% of the Moon is Illuminated
Mar 17
Full
Mar 23
Last Quarter
Mar 30
New
Apr 7
First Quarter
Apr 15
Full

Hourly Weather History & Observations

Time (EDT) Temp. Windchill Dew Point Humidity Pressure Visibility Wind Dir Wind Speed Gust Speed Precip Events Conditions
12:05 AM 28.4 °F 19.1 °F 28.4 °F 100% 30.13 in 1.2 mi North 10.4 mph - N/A Snow Snow
12:25 AM 28.4 °F 20.4 °F 28.4 °F 100% 30.13 in 1.5 mi North 8.1 mph - N/A Snow Light Snow
12:45 AM 28.4 °F 19.7 °F 28.4 °F 100% 30.12 in 1.0 mi NNE 9.2 mph - N/A Snow Snow
1:05 AM 28.4 °F 20.4 °F 28.4 °F 100% 30.09 in 0.8 mi NNE 8.1 mph - N/A Snow Snow
1:25 AM 28.4 °F 19.7 °F 28.4 °F 100% 30.08 in 1.2 mi NNE 9.2 mph - N/A Snow Light Snow
1:45 AM 28.4 °F 22.2 °F 28.4 °F 100% 30.09 in 1.8 mi NNE 5.8 mph - N/A Snow Light Snow
2:05 AM 28.4 °F 18.5 °F 28.4 °F 100% 30.08 in 2.0 mi NNE 11.5 mph 16.1 mph N/A Snow Light Snow
2:25 AM 26.6 °F 17.5 °F 26.6 °F 100% 30.08 in 1.5 mi NNE 9.2 mph - N/A Snow Light Snow
2:45 AM 26.6 °F 19.1 °F 26.6 °F 100% 30.09 in 1.2 mi NNE 6.9 mph - N/A Snow Light Snow
3:05 AM 26.6 °F 20.0 °F 26.6 °F 100% 30.10 in 0.8 mi NNE 5.8 mph - N/A Snow Snow
3:25 AM 26.6 °F 21.2 °F 26.6 °F 100% 30.10 in 1.0 mi North 4.6 mph - 0.01 in Snow Light Snow
3:45 AM 26.6 °F 19.1 °F 26.6 °F 100% 30.08 in 1.0 mi NNE 6.9 mph - 0.01 in Snow Snow
4:05 AM 26.6 °F 20.0 °F 26.6 °F 100% 30.09 in 1.0 mi NNE 5.8 mph - N/A Snow Snow
4:25 AM 26.6 °F 19.1 °F 26.6 °F 100% 30.08 in 1.5 mi NNE 6.9 mph - N/A Snow Light Snow
4:45 AM 24.8 °F 14.0 °F 24.8 °F 100% 30.07 in 1.5 mi NE 11.5 mph - N/A Snow Light Snow
5:05 AM 24.8 °F 15.3 °F 24.8 °F 100% 30.06 in 1.5 mi NNE 9.2 mph - N/A Snow Light Snow
5:25 AM 24.8 °F 19.1 °F 24.8 °F 100% 30.08 in 3.0 mi NNE 4.6 mph - 0.03 in Snow Light Snow
5:45 AM 24.8 °F 16.9 °F 24.8 °F 100% 30.06 in 4.0 mi NNE 6.9 mph - 0.04 in Snow Light Snow
6:05 AM 24.8 °F 16.1 °F 23.0 °F 93% 30.05 in 3.0 mi NNE 8.1 mph - N/A Snow Light Snow
6:25 AM 24.8 °F 16.1 °F 23.0 °F 93% 30.05 in 2.5 mi NNE 8.1 mph - 0.01 in Snow Light Snow
6:35 AM 24.8 °F 16.1 °F 24.8 °F 100% 30.06 in 3.0 mi NNE 8.1 mph - 0.02 in Snow Light Snow
6:45 AM 24.8 °F 16.1 °F 24.8 °F 100% 30.07 in 4.0 mi NE 8.1 mph - N/A Snow Light Snow
7:50 AM 24.8 °F 16.1 °F 23.0 °F 93% 30.09 in 4.0 mi NNE 8.1 mph - N/A Snow Light Snow
8:14 AM 24.8 °F 14.6 °F 23.0 °F 93% 30.09 in 2.0 mi NNE 10.4 mph - N/A Snow Snow
8:55 AM 24.8 °F 16.9 °F 23.0 °F 93% 30.07 in 2.5 mi NNE 6.9 mph - N/A Snow Light Snow
9:47 AM 24.8 °F 14.6 °F 23.0 °F 93% 30.10 in 2.5 mi NNE 10.4 mph - N/A Snow Light Snow
10:26 AM 26.6 °F 16.8 °F 21.2 °F 80% 30.10 in 3.0 mi NE 10.4 mph - N/A Snow Light Snow
10:50 AM 26.6 °F 15.7 °F 21.2 °F 80% 30.08 in 4.0 mi NNE 12.7 mph - N/A Snow Light Snow
11:53 AM 26.6 °F 15.7 °F 23.0 °F 86% 30.12 in 2.0 mi North 12.7 mph - N/A Snow Light Snow
12:20 PM 26.6 °F 16.8 °F 21.2 °F 80% 30.10 in 5.0 mi NNE 10.4 mph - N/A   Overcast
12:50 PM 26.6 °F 16.8 °F 21.2 °F 80% 30.11 in 5.0 mi NNE 10.4 mph - N/A   Overcast
1:50 PM 28.4 °F 19.1 °F 23.0 °F 80% 30.07 in 10.0 mi NNE 10.4 mph - N/A   Mostly Cloudy
2:45 PM 30.2 °F 21.9 °F 23.0 °F 75% 30.07 in 10.0 mi NNE 9.2 mph - N/A   Overcast
3:45 PM 30.2 °F 22.6 °F 23.0 °F 75% 30.06 in 10.0 mi North 8.1 mph - N/A   Overcast
4:50 PM 30.2 °F 24.3 °F 24.8 °F 80% 30.06 in 10.0 mi NE 5.8 mph - N/A   Overcast
5:45 PM 30.2 °F 23.4 °F 24.8 °F 80% 30.06 in 10.0 mi North 6.9 mph - N/A   Overcast
6:45 PM - - - N/A% 30.07 in 10.0 mi NNE 3.5 mph - N/A   Overcast
7:45 PM 30.2 °F 26.7 °F 26.6 °F 86% 30.07 in 10.0 mi NE 3.5 mph - N/A   Overcast
8:50 PM 32.0 °F - 26.6 °F 80% 30.10 in 10.0 mi Calm Calm - N/A   Overcast
9:10 PM 32.0 °F 28.7 °F 26.6 °F 80% 30.11 in 10.0 mi NE 3.5 mph - 0.01 in   Overcast
9:30 PM 32.0 °F 28.7 °F 26.6 °F 80% 30.11 in 10.0 mi NE 3.5 mph - 0.01 in   Overcast
9:50 PM 32.0 °F - 26.6 °F 80% 30.11 in 10.0 mi Calm Calm - 0.01 in   Overcast
10:10 PM 32.0 °F - 26.6 °F 80% 30.12 in 10.0 mi Calm Calm - N/A   Overcast
10:30 PM 32.0 °F - 26.6 °F 80% 30.12 in 10.0 mi Calm Calm - N/A   Overcast
10:50 PM 32.0 °F - 26.6 °F 80% 30.12 in 10.0 mi Calm Calm - N/A   Overcast
11:10 PM 32.0 °F - 26.6 °F 80% 30.12 in 10.0 mi Calm Calm - N/A   Overcast
11:30 PM 32.0 °F 28.7 °F 26.6 °F 80% 30.12 in 10.0 mi NNE 3.5 mph - N/A   Overcast
11:50 PM 32.0 °F - 26.6 °F 80% 30.12 in 10.0 mi Calm Calm - N/A   Overcast